N6OIL Weather Reports


time (UTC)temp
C
wind
direction
speed
KPH
gust
KPH
rain 1hr
cm
rain 24hr
cm
rain mn
cm
humidity
%
barometer
mb
20260507001704 26 136 6.4 16.1 0.00 0.00 0.00 19 1016.1
20260507001204 26 111 4.8 12.9 0.00 0.00 0.00 19 1016.1
20260507000704 26 158 4.8 17.7 0.00 0.00 0.00 20 1016.1
20260507000205 26 134 4.8 17.7 0.00 0.00 0.00 20 1016.0
20260506235705 26 226 6.4 16.1 0.00 0.00 0.00 20 1016.1
20260506235204 26 184 6.4 17.7 0.00 0.00 0.00 20 1016.1
20260506234704 26 148 6.4 17.7 0.00 0.00 0.00 20 1016.1
20260506234204 26 192 6.4 17.7 0.00 0.00 0.00 20 1016.1
20260506233205 25 139 9.7 20.9 0.00 0.00 0.00 21 1016.1
20260506232705 25 144 11.3 20.9 0.00 0.00 0.00 21 1016.3
20260506232205 25 150 9.7 20.9 0.00 0.00 0.00 20 1016.3
20260506231704 25 153 9.7 24.1 0.00 0.00 0.00 21 1016.2
20260506230704 25 184 9.7 24.1 0.00 0.00 0.00 22 1016.2
20260506230204 25 145 6.4 17.7 0.00 0.00 0.00 21 1016.3
20260506225205 25 230 9.7 24.1 0.00 0.00 0.00 23 1016.4
20260506224204 25 154 8.0 27.4 0.00 0.00 0.00 22 1016.5
20260506223704 25 159 9.7 27.4 0.00 0.00 0.00 23 1016.5
20260506223204 25 219 9.7 27.4 0.00 0.00 0.00 24 1016.6
20260506222204 25 223 8.0 20.9 0.00 0.00 0.00 24 1016.6
20260506221705 25 179 8.0 24.1 0.00 0.00 0.00 26 1016.8
20260506221204 25 98 9.7 24.1 0.00 0.00 0.00 25 1016.8
20260506220704 25 163 9.7 24.1 0.00 0.00 0.00 26 1017.0
20260506220204 25 190 4.8 20.9 0.00 0.00 0.00 26 1016.8
20260506215704 24 187 6.4 24.1 0.00 0.00 0.00 28 1017.0
20260506215205 24 222 11.3 29.0 0.00 0.00 0.00 28 1017.0
20260506214204 24 225 9.7 19.3 0.00 0.00 0.00 27 1017.1
20260506213704 25 222 8.0 20.9 0.00 0.00 0.00 26 1017.2
20260506211704 24 231 9.7 19.3 0.00 0.00 0.00 28 1017.4
20260506211204 24 247 8.0 22.5 0.00 0.00 0.00 27 1017.4
20260506210704 24 115 8.0 22.5 0.00 0.00 0.00 27 1017.4
20260506210204 24 235 8.0 22.5 0.00 0.00 0.00 28 1017.4
20260506205704 24 228 6.4 14.5 0.00 0.00 0.00 26 1017.5
20260506204704 24 179 8.0 24.1 0.00 0.00 0.00 27 1017.5
20260506204205 23 144 8.0 24.1 0.00 0.00 0.00 27 1017.6
20260506203204 24 160 9.7 25.7 0.00 0.00 0.00 26 1017.6
20260506202704 24 150 6.4 25.7 0.00 0.00 0.00 27 1017.6
20260506202204 24 71 4.8 12.9 0.00 0.00 0.00 27 1017.6
20260506201704 23 217 4.8 12.9 0.00 0.00 0.00 28 1017.6
20260506201204 23 223 4.8 14.5 0.00 0.00 0.00 27 1017.7
20260506200704 23 223 6.4 14.5 0.00 0.00 0.00 27 1017.8
20260506200204 23 154 4.8 14.5 0.00 0.00 0.00 28 1017.8
20260506195704 23 172 6.4 14.5 0.00 0.00 0.00 28 1017.8
20260506195204 23 169 6.4 16.1 0.00 0.00 0.00 28 1018.0
20260506194704 23 198 6.4 17.7 0.00 0.00 0.00 29 1018.0
20260506194204 22 163 8.0 17.7 0.00 0.00 0.00 29 1018.0
20260506193704 22 148 9.7 17.7 0.00 0.00 0.00 28 1018.1
20260506192704 22 115 6.4 12.9 0.00 0.00 0.00 30 1018.1
20260506192204 22 234 4.8 17.7 0.00 0.00 0.00 29 1018.1
20260506191704 22 236 6.4 17.7 0.00 0.00 0.00 31 1018.2
20260506191204 22 153 9.7 17.7 0.00 0.00 0.00 30 1018.3
20260506190204 22 153 6.4 20.9 0.00 0.00 0.00 30 1018.3
20260506185704 21 101 9.7 20.9 0.00 0.00 0.00 31 1018.3
20260506185204 22 112 8.0 19.3 0.00 0.00 0.00 30 1018.4
20260506184704 21 146 8.0 19.3 0.00 0.00 0.00 31 1018.4
20260506183204 20 190 9.7 20.9 0.00 0.00 0.00 32 1018.4
20260506182704 20 121 9.7 20.9 0.00 0.00 0.00 32 1018.5
20260506182204 20 90 8.0 20.9 0.00 0.00 0.00 33 1018.5
20260506181704 20 86 9.7 20.9 0.00 0.00 0.00 33 1018.6
20260506181204 20 112 8.0 20.9 0.00 0.00 0.00 33 1018.5
20260506180705 20 358 9.7 20.9 0.00 0.00 0.00 34 1018.6
20260506180204 20 134 9.7 20.9 0.00 0.00 0.00 35 1018.6
20260506174705 19 119 11.3 24.1 0.00 0.00 0.00 36 1018.6
20260506174205 19 124 12.9 19.3 0.00 0.00 0.00 35 1018.5
20260506173704 19 358 11.3 19.3 0.00 0.00 0.00 35 1018.5
20260506173204 19 131 9.7 19.3 0.00 0.00 0.00 37 1018.5
20260506172704 18 103 9.7 19.3 0.00 0.00 0.00 36 1018.5
20260506171704 18 358 11.3 19.3 0.00 0.00 0.00 40 1018.5
20260506171204 18 358 11.3 19.3 0.00 0.00 0.00 38 1018.5
20260506170704 18 358 9.7 19.3 0.00 0.00 0.00 41 1018.4
20260506170205 18 358 9.7 20.9 0.00 0.00 0.00 40 1018.4
20260506165704 17 358 8.0 20.9 0.00 0.00 0.00 41 1018.3
20260506165204 17 82 9.7 20.9 0.00 0.00 0.00 41 1018.4
20260506164704 17 88 11.3 22.5 0.00 0.00 0.00 42 1018.3
20260506164204 17 113 11.3 22.5 0.00 0.00 0.00 42 1018.4
20260506163706 17 86 11.3 22.5 0.00 0.00 0.00 43 1018.3
20260506163205 17 120 9.7 17.7 0.00 0.00 0.00 43 1018.4
20260506162704 16 86 8.0 20.9 0.00 0.00 0.00 44 1018.3
20260506161703 16 80 11.3 22.5 0.00 0.00 0.00 46 1018.3
20260506161205 16 101 11.3 22.5 0.00 0.00 0.00 46 1018.2
20260506160704 15 72 11.3 22.5 0.00 0.00 0.00 48 1018.3
20260506160204 15 81 11.3 19.3 0.00 0.00 0.00 49 1018.3
20260506155704 15 84 9.7 19.3 0.00 0.00 0.00 50 1018.3
20260506154704 15 79 9.7 17.7 0.00 0.00 0.00 50 1018.3
20260506154204 15 82 8.0 17.7 0.00 0.00 0.00 51 1018.3
20260506153705 14 81 8.0 17.7 0.00 0.00 0.00 52 1018.3
20260506153204 14 80 8.0 17.7 0.00 0.00 0.00 53 1018.3
20260506152704 14 73 6.4 16.1 0.00 0.00 0.00 54 1018.3
20260506152206 13 80 6.4 20.9 0.00 0.00 0.00 55 1018.2
20260506151704 13 53 8.0 20.9 0.00 0.00 0.00 55 1018.1
20260506151205 13 72 9.7 19.3 0.00 0.00 0.00 56 1018.2
20260506150704 13 92 8.0 17.7 0.00 0.00 0.00 56 1018.3
20260506150204 13 109 6.4 19.3 0.00 0.00 0.00 57 1018.2
20260506145704 12 76 8.0 19.3 0.00 0.00 0.00 58 1018.2
20260506145205 12 94 8.0 14.5 0.00 0.00 0.00 58 1018.2
20260506144205 12 86 4.8 12.9 0.00 0.00 0.00 60 1018.1
20260506143705 12 80 4.8 11.3 0.00 0.00 0.00 61 1018.1
20260506143204 11 83 4.8 11.3 0.00 0.00 0.00 62 1018.0
20260506142704 11 85 4.8 8.0 0.00 0.00 0.00 63 1017.8
20260506142204 11 8 4.8 8.0 0.00 0.00 0.00 64 1017.8
20260506141704 11 3 4.8 8.0 0.00 0.00 0.00 65 1017.7
20260506141204 10 358 3.2 8.0 0.00 0.00 0.00 66 1017.6
20260506140704 10 334 3.2 8.0 0.00 0.00 0.00 67 1017.6
20260506140204 10 334 4.8 8.0 0.00 0.00 0.00 67 1017.5
20260506135704 9 330 4.8 8.0 0.00 0.00 0.00 69 1017.5
20260506135204 9 330 4.8 8.0 0.00 0.00 0.00 70 1017.4
20260506134705 8 330 4.8 6.4 0.00 0.00 0.00 71 1017.4
20260506134204 8 330 3.2 6.4 0.00 0.00 0.00 73 1017.4
20260506133204 7 330 4.8 6.4 0.00 0.00 0.00 74 1017.4
20260506132704 7 330 4.8 6.4 0.00 0.00 0.00 74 1017.4
20260506132205 6 330 3.2 6.4 0.00 0.00 0.00 74 1017.3
20260506131204 6 330 3.2 8.0 0.00 0.00 0.00 76 1017.3
20260506130704 6 330 4.8 8.0 0.00 0.00 0.00 76 1017.2
20260506130205 5 330 6.4 8.0 0.00 0.00 0.00 75 1017.1
20260506125704 5 330 6.4 8.0 0.00 0.00 0.00 75 1017.0
20260506125204 5 330 6.4 8.0 0.00 0.00 0.00 74 1017.1
20260506124705 6 330 4.8 6.4 0.00 0.00 0.00 75 1017.0
20260506124205 5 330 4.8 6.4 0.00 0.00 0.00 75 1017.0
20260506123706 5 330 4.8 8.0 0.00 0.00 0.00 75 1017.0
20260506123205 5 330 6.4 8.0 0.00 0.00 0.00 75 1016.7
20260506122704 5 330 4.8 6.4 0.00 0.00 0.00 75 1016.7
20260506122204 5 330 4.8 6.4 0.00 0.00 0.00 75 1016.8
20260506121704 5 330 4.8 8.0 0.00 0.00 0.00 75 1016.7
20260506121204 5 330 6.4 8.0 0.00 0.00 0.00 75 1016.7
20260506120704 5 330 6.4 8.0 0.00 0.00 0.00 75 1016.7
20260506120205 5 330 6.4 8.0 0.00 0.00 0.00 75 1016.7
20260506115704 5 330 6.4 8.0 0.00 0.00 0.00 75 1016.7
20260506115204 5 330 6.4 8.0 0.00 0.00 0.00 75 1016.7
20260506114705 5 330 4.8 8.0 0.00 0.00 0.00 75 1016.7
20260506114204 5 330 6.4 8.0 0.00 0.00 0.00 75 1016.6
20260506113704 5 330 6.4 8.0 0.00 0.00 0.00 75 1016.6
20260506112705 5 330 4.8 9.7 0.00 0.00 0.00 76 1016.5
20260506112204 5 330 6.4 9.7 0.00 0.00 0.00 76 1016.6
20260506110704 5 330 6.4 8.0 0.00 0.00 0.00 76 1016.6
20260506110204 5 330 6.4 8.0 0.00 0.00 0.00 76 1016.6
20260506105704 6 330 6.4 8.0 0.00 0.00 0.00 76 1016.6
20260506105204 6 330 6.4 8.0 0.00 0.00 0.00 76 1016.6
20260506104704 6 330 6.4 9.7 0.00 0.00 0.00 77 1016.5
20260506104204 6 330 6.4 9.7 0.00 0.00 0.00 77 1016.5
20260506103205 6 330 8.0 9.7 0.00 0.00 0.00 77 1016.5
20260506102704 6 330 8.0 9.7 0.00 0.00 0.00 77 1016.4
20260506102204 6 330 8.0 12.9 0.00 0.00 0.00 78 1016.4
20260506101704 6 330 8.0 12.9 0.00 0.00 0.00 77 1016.4
20260506101204 6 330 9.7 12.9 0.00 0.00 0.00 78 1016.4
20260506100705 6 330 8.0 12.9 0.00 0.00 0.00 78 1016.4
20260506100204 6 329 8.0 12.9 0.00 0.00 0.00 77 1016.4
20260506095705 6 329 8.0 12.9 0.00 0.00 0.00 78 1016.5
20260506095204 6 329 8.0 12.9 0.00 0.00 0.00 78 1016.4
20260506094705 6 328 8.0 12.9 0.00 0.00 0.00 78 1016.4
20260506094206 6 327 8.0 12.9 0.00 0.00 0.00 79 1016.4
20260506093704 6 327 8.0 9.7 0.00 0.00 0.00 79 1016.4
20260506093204 6 327 8.0 9.7 0.00 0.00 0.00 79 1016.5
20260506092704 6 327 6.4 9.7 0.00 0.00 0.00 79 1016.4
20260506092204 6 327 6.4 12.9 0.00 0.00 0.00 78 1016.4
20260506091707 6 327 8.0 12.9 0.00 0.00 0.00 79 1016.4
20260506091204 6 327 6.4 12.9 0.00 0.00 0.00 78 1016.5
20260506090204 6 336 4.8 8.0 0.00 0.00 0.00 77 1016.5
20260506085704 6 336 6.4 9.7 0.00 0.00 0.00 77 1016.6
20260506085204 6 336 6.4 9.7 0.00 0.00 0.00 77 1016.6
20260506084704 6 336 6.4 9.7 0.00 0.00 0.00 77 1016.5
20260506084204 7 336 8.0 14.5 0.00 0.00 0.00 77 1016.6
20260506083705 7 336 8.0 14.5 0.00 0.00 0.00 76 1016.6
20260506082704 7 336 9.7 14.5 0.00 0.00 0.00 76 1016.4
20260506082204 7 341 9.7 14.5 0.00 0.00 0.00 76 1016.6
20260506081705 7 336 9.7 14.5 0.00 0.00 0.00 76 1016.6
20260506081204 7 334 9.7 14.5 0.00 0.00 0.00 76 1016.6
20260506080704 7 329 9.7 16.1 0.00 0.00 0.00 76 1016.6
20260506073204 7 327 12.9 20.9 0.00 0.00 0.00 79 1016.5
20260506072705 7 328 14.5 24.1 0.00 0.00 0.00 79 1016.5
20260506072205 7 321 16.1 24.1 0.00 0.00 0.00 79 1016.5
20260506071704 7 326 16.1 24.1 0.00 0.00 0.00 79 1016.5
20260506071204 7 329 16.1 22.5 0.00 0.00 0.00 78 1016.4
20260506070704 7 319 16.1 22.5 0.00 0.00 0.00 78 1016.4
20260506062204 8 318 11.3 16.1 0.00 0.00 0.00 73 1016.2
20260506061704 8 313 9.7 16.1 0.00 0.00 0.00 73 1016.3
20260506061204 8 323 9.7 16.1 0.00 0.00 0.00 73 1016.3
20260506060704 8 321 9.7 16.1 0.00 0.00 0.00 72 1016.1
20260506060204 8 338 9.7 16.1 0.00 0.00 0.00 72 1016.2
20260506050704 8 320 12.9 22.5 0.00 0.00 0.00 71 1015.7
20260506050204 9 334 12.9 19.3 0.00 0.00 0.00 71 1015.7
20260506044704 9 327 14.5 20.9 0.00 0.00 0.00 70 1015.5
20260506043204 9 315 11.3 17.7 0.00 0.00 0.00 69 1015.4
20260506042704 9 327 11.3 17.7 0.00 0.00 0.00 69 1015.3
20260506042204 9 325 11.3 17.7 0.00 0.00 0.00 68 1015.3
20260506041704 9 310 8.0 14.5 0.00 0.00 0.00 67 1015.2
20260506041204 9 326 6.4 14.5 0.00 0.00 0.00 67 1015.1
20260506035704 10 325 6.4 12.9 0.00 0.00 0.00 65 1014.7
20260506035207 10 9 6.4 12.9 0.00 0.00 0.00 64 1014.6
20260506034204 11 20 6.4 14.5 0.00 0.00 0.00 66 1014.5
20260506033704 11 49 6.4 14.5 0.00 0.00 0.00 65 1014.5
20260506033204 11 41 6.4 14.5 0.00 0.00 0.00 65 1014.5
20260506032705 11 41 6.4 12.9 0.00 0.00 0.00 64 1014.5
20260506032204 11 48 6.4 12.9 0.00 0.00 0.00 63 1014.4
20260506031704 11 51 6.4 12.9 0.00 0.00 0.00 63 1014.4
20260506031204 11 57 4.8 16.1 0.00 0.00 0.00 63 1014.3
20260506030704 11 67 6.4 16.1 0.00 0.00 0.00 62 1014.3
20260506025704 11 73 8.0 17.7 0.00 0.00 0.00 61 1014.1
20260506025204 12 68 8.0 17.7 0.00 0.00 0.00 60 1014.0
20260506024705 12 63 8.0 17.7 0.00 0.00 0.00 60 1013.9
20260506023204 12 74 8.0 19.3 0.00 0.00 0.00 58 1013.8
20260506022705 12 63 8.0 25.7 0.00 0.00 0.00 57 1013.6
20260506022204 13 77 8.0 25.7 0.00 0.00 0.00 57 1013.6
20260506021704 13 60 9.7 22.5 0.00 0.00 0.00 56 1013.5
20260506021205 13 84 11.3 22.5 0.00 0.00 0.00 55 1013.4
20260506020705 13 83 9.7 22.5 0.00 0.00 0.00 54 1013.4
20260506020204 13 61 9.7 27.4 0.00 0.00 0.00 54 1013.2
20260506015706 13 67 11.3 27.4 0.00 0.00 0.00 53 1013.1
20260506015204 14 60 12.9 27.4 0.00 0.00 0.00 53 1013.1
20260506014704 14 74 11.3 22.5 0.00 0.00 0.00 51 1013.0
20260506014204 14 70 11.3 25.7 0.00 0.00 0.00 51 1012.9
20260506013704 15 78 11.3 25.7 0.00 0.00 0.00 51 1012.9
20260506013204 15 73 11.3 25.7 0.00 0.00 0.00 49 1012.8
20260506012704 15 73 12.9 22.5 0.00 0.00 0.00 48 1012.8
20260506012204 15 68 11.3 22.5 0.00 0.00 0.00 47 1012.8
20260506011704 16 73 9.7 19.3 0.00 0.00 0.00 46 1012.8
20260506011204 16 49 9.7 19.3 0.00 0.00 0.00 46 1012.6
20260506010705 16 78 9.7 22.5 0.00 0.00 0.00 46 1012.6
20260506010204 16 81 11.3 25.7 0.00 0.00 0.00 45 1012.6
20260506005204 16 94 9.7 25.7 0.00 0.00 0.00 45 1012.4
20260506004204 16 72 12.9 30.6 0.00 0.00 0.00 45 1012.4
20260506003704 16 59 11.3 30.6 0.00 0.00 0.00 45 1012.3
20260506003205 16 77 11.3 27.4 0.00 0.00 0.00 45 1012.2
20260506002704 16 92 12.9 27.4 0.00 0.00 0.00 46 1012.2